| time (UTC) | temp F | wind direction | speed MPH | gust MPH | rain 1hr in | rain 24hr in | rain mn in | humidity % | barometer mb |
| 20260506231511 | 63 | 0 | 0.0 | 0.0 | 0.00 | 0.00 | 0.00 | 54 | 1016.7 |
| 20260506231011 | 63 | 270 | 0.0 | 2.0 | 0.00 | 0.00 | 0.00 | 54 | 1016.6 |
| 20260506230512 | 63 | 245 | 1.0 | 2.0 | 0.00 | 0.00 | 0.00 | 53 | 1016.6 |
| 20260506230011 | 63 | 260 | 1.0 | 2.0 | 0.00 | 0.00 | 0.00 | 53 | 1016.6 |
| 20260506225511 | 63 | 270 | 1.0 | 2.0 | 0.00 | 0.00 | 0.00 | 53 | 1016.6 |
| 20260506225011 | 63 | 270 | 0.0 | 2.0 | 0.00 | 0.00 | 0.00 | 53 | 1016.7 |
| 20260506224511 | 63 | 270 | 0.0 | 1.0 | 0.00 | 0.00 | 0.00 | 53 | 1016.6 |
| 20260506224012 | 63 | 0 | 0.0 | 0.0 | 0.00 | 0.00 | 0.00 | 53 | 1016.7 |
| 20260506223012 | 63 | 351 | 1.0 | 2.0 | 0.00 | 0.00 | 0.00 | 53 | 1016.7 |
| 20260506222511 | 63 | 355 | 2.0 | 2.0 | 0.00 | 0.00 | 0.00 | 53 | 1016.8 |
| 20260506222011 | 63 | 348 | 2.0 | 2.0 | 0.00 | 0.00 | 0.00 | 53 | 1016.8 |
| 20260506221511 | 64 | 333 | 1.0 | 2.0 | 0.00 | 0.00 | 0.00 | 49 | 1016.8 |
| 20260506220511 | 64 | 108 | 1.0 | 2.0 | 0.00 | 0.00 | 0.00 | 47 | 1016.9 |
| 20260506220013 | 64 | 90 | 0.0 | 1.0 | 0.00 | 0.00 | 0.00 | 47 | 1016.9 |
| 20260506215511 | 64 | 0 | 0.0 | 0.0 | 0.00 | 0.00 | 0.00 | 47 | 1016.9 |
| 20260506215011 | 64 | 0 | 0.0 | 0.0 | 0.00 | 0.00 | 0.00 | 46 | 1016.9 |
| 20260506214011 | 64 | 0 | 0.0 | 0.0 | 0.00 | 0.00 | 0.00 | 46 | 1016.9 |
| 20260506213511 | 64 | 0 | 0.0 | 0.0 | 0.00 | 0.00 | 0.00 | 46 | 1017.1 |
| 20260506212511 | 65 | 0 | 0.0 | 0.0 | 0.00 | 0.00 | 0.00 | 44 | 1017.3 |
| 20260506212011 | 65 | 0 | 0.0 | 0.0 | 0.00 | 0.00 | 0.00 | 44 | 1017.1 |
| 20260506211511 | 65 | 189 | 0.0 | 1.0 | 0.00 | 0.00 | 0.00 | 44 | 1017.1 |
| 20260506210016 | 65 | 232 | 1.0 | 2.0 | 0.00 | 0.00 | 0.00 | 43 | 1017.4 |
| 20260506205511 | 65 | 229 | 2.0 | 2.0 | 0.00 | 0.00 | 0.00 | 43 | 1017.4 |
| 20260506205011 | 65 | 246 | 2.0 | 3.0 | 0.00 | 0.00 | 0.00 | 43 | 1017.4 |
| 20260506204011 | 65 | 243 | 3.0 | 3.0 | 0.00 | 0.00 | 0.00 | 42 | 1017.3 |
| 20260506203511 | 65 | 244 | 3.0 | 3.0 | 0.00 | 0.00 | 0.00 | 42 | 1017.4 |
| 20260506203011 | 65 | 258 | 3.0 | 3.0 | 0.00 | 0.00 | 0.00 | 42 | 1017.4 |
| 20260506202511 | 66 | 268 | 3.0 | 3.0 | 0.00 | 0.00 | 0.00 | 42 | 1017.4 |
| 20260506202013 | 66 | 262 | 2.0 | 3.0 | 0.00 | 0.00 | 0.00 | 42 | 1017.3 |
| 20260506200511 | 66 | 311 | 0.0 | 2.0 | 0.00 | 0.00 | 0.00 | 43 | 1017.2 |
| 20260506200011 | 66 | 307 | 1.0 | 2.0 | 0.00 | 0.00 | 0.00 | 43 | 1017.2 |
| 20260506195512 | 66 | 288 | 1.0 | 2.0 | 0.00 | 0.00 | 0.00 | 43 | 1017.1 |
| 20260506195011 | 66 | 324 | 2.0 | 2.0 | 0.00 | 0.00 | 0.00 | 43 | 1017.2 |
| 20260506194512 | 66 | 345 | 2.0 | 2.0 | 0.00 | 0.00 | 0.00 | 43 | 1017.0 |
| 20260506193511 | 66 | 315 | 2.0 | 2.0 | 0.00 | 0.00 | 0.00 | 43 | 1016.9 |
| 20260506193011 | 66 | 331 | 2.0 | 2.0 | 0.00 | 0.00 | 0.00 | 43 | 1016.9 |
| 20260506192513 | 66 | 323 | 2.0 | 3.0 | 0.00 | 0.00 | 0.00 | 43 | 1016.8 |
| 20260506190510 | 66 | 9 | 2.0 | 2.0 | 0.00 | 0.00 | 0.00 | 44 | 1016.6 |
| 20260506190012 | 66 | 353 | 2.0 | 2.0 | 0.00 | 0.00 | 0.00 | 43 | 1016.6 |
| 20260506185511 | 66 | 1 | 3.0 | 3.0 | 0.00 | 0.00 | 0.00 | 43 | 1016.4 |
| 20260506184511 | 67 | 342 | 2.0 | 3.0 | 0.00 | 0.00 | 0.00 | 43 | 1016.4 |
| 20260506183513 | 67 | 342 | 2.0 | 3.0 | 0.00 | 0.00 | 0.00 | 43 | 1016.5 |
| 20260506183011 | 67 | 354 | 3.0 | 4.0 | 0.00 | 0.00 | 0.00 | 43 | 1016.5 |
| 20260506182511 | 67 | 353 | 3.0 | 4.0 | 0.00 | 0.00 | 0.00 | 42 | 1016.3 |
| 20260506182011 | 67 | 354 | 3.0 | 3.0 | 0.00 | 0.00 | 0.00 | 43 | 1016.3 |
| 20260506181510 | 67 | 351 | 3.0 | 4.0 | 0.00 | 0.00 | 0.00 | 43 | 1016.2 |
| 20260506181011 | 67 | 340 | 3.0 | 4.0 | 0.00 | 0.00 | 0.00 | 43 | 1016.2 |
| 20260506180511 | 67 | 326 | 3.0 | 3.0 | 0.00 | 0.00 | 0.00 | 43 | 1016.1 |
| 20260506175511 | 68 | 330 | 2.0 | 3.0 | 0.00 | 0.00 | 0.00 | 42 | 1016.3 |
| 20260506175011 | 68 | 270 | 2.0 | 2.0 | 0.00 | 0.00 | 0.00 | 42 | 1016.2 |
| 20260506174510 | 68 | 259 | 2.0 | 3.0 | 0.00 | 0.00 | 0.00 | 40 | 1016.2 |
| 20260506174011 | 68 | 251 | 3.0 | 4.0 | 0.00 | 0.00 | 0.00 | 39 | 1016.0 |
| 20260506173010 | 69 | 256 | 3.0 | 4.0 | 0.00 | 0.00 | 0.00 | 37 | 1015.8 |
| 20260506172511 | 69 | 262 | 3.0 | 4.0 | 0.00 | 0.00 | 0.00 | 37 | 1015.9 |
| 20260506172011 | 69 | 271 | 3.0 | 4.0 | 0.00 | 0.00 | 0.00 | 36 | 1015.9 |
| 20260506171510 | 69 | 283 | 3.0 | 4.0 | 0.00 | 0.00 | 0.00 | 36 | 1015.9 |
| 20260506171011 | 69 | 255 | 3.0 | 5.0 | 0.00 | 0.00 | 0.00 | 36 | 1016.0 |
| 20260506170510 | 69 | 200 | 4.0 | 5.0 | 0.00 | 0.00 | 0.00 | 35 | 1016.0 |
| 20260506165511 | 70 | 248 | 4.0 | 4.0 | 0.00 | 0.00 | 0.00 | 34 | 1015.9 |
| 20260506165011 | 70 | 264 | 4.0 | 5.0 | 0.00 | 0.00 | 0.00 | 34 | 1015.9 |
| 20260506164510 | 71 | 268 | 5.0 | 6.0 | 0.00 | 0.00 | 0.00 | 34 | 1016.0 |
| 20260506164011 | 71 | 249 | 5.0 | 7.0 | 0.00 | 0.00 | 0.00 | 34 | 1015.9 |
| 20260506163011 | 71 | 233 | 5.0 | 7.0 | 0.00 | 0.00 | 0.00 | 33 | 1015.9 |
| 20260506162511 | 72 | 236 | 5.0 | 7.0 | 0.00 | 0.00 | 0.00 | 34 | 1015.8 |
| 20260506162010 | 72 | 246 | 4.0 | 7.0 | 0.00 | 0.00 | 0.00 | 33 | 1015.8 |
| 20260506161511 | 72 | 242 | 4.0 | 4.0 | 0.00 | 0.00 | 0.00 | 33 | 1015.7 |
| 20260506161011 | 72 | 241 | 4.0 | 6.0 | 0.00 | 0.00 | 0.00 | 33 | 1015.7 |
| 20260506160511 | 72 | 251 | 5.0 | 6.0 | 0.00 | 0.00 | 0.00 | 33 | 1015.8 |
| 20260506160010 | 72 | 252 | 6.0 | 8.0 | 0.00 | 0.00 | 0.00 | 32 | 1015.7 |
| 20260506155510 | 73 | 262 | 6.0 | 8.0 | 0.00 | 0.00 | 0.00 | 31 | 1015.7 |
| 20260506155011 | 73 | 261 | 6.0 | 8.0 | 0.00 | 0.00 | 0.00 | 32 | 1015.5 |
| 20260506154511 | 73 | 247 | 5.0 | 5.0 | 0.00 | 0.00 | 0.00 | 32 | 1015.7 |
| 20260506153511 | 73 | 258 | 6.0 | 8.0 | 0.00 | 0.00 | 0.00 | 30 | 1015.8 |
| 20260506153011 | 73 | 244 | 5.0 | 8.0 | 0.00 | 0.00 | 0.00 | 30 | 1015.9 |
| 20260506152510 | 74 | 242 | 5.0 | 7.0 | 0.00 | 0.00 | 0.00 | 31 | 1015.8 |
| 20260506152011 | 74 | 251 | 5.0 | 8.0 | 0.00 | 0.00 | 0.00 | 32 | 1015.9 |
| 20260506151512 | 73 | 285 | 6.0 | 8.0 | 0.00 | 0.00 | 0.00 | 32 | 1015.8 |
| 20260506151011 | 73 | 270 | 7.0 | 9.0 | 0.00 | 0.00 | 0.00 | 32 | 1015.9 |
| 20260506150511 | 74 | 223 | 7.0 | 9.0 | 0.00 | 0.00 | 0.00 | 32 | 1015.9 |
| 20260506145511 | 74 | 292 | 6.0 | 8.0 | 0.00 | 0.00 | 0.00 | 32 | 1015.8 |
| 20260506145011 | 74 | 278 | 6.0 | 9.0 | 0.00 | 0.00 | 0.00 | 32 | 1015.9 |
| 20260506144510 | 74 | 264 | 6.0 | 9.0 | 0.00 | 0.00 | 0.00 | 32 | 1015.9 |
| 20260506144011 | 75 | 234 | 5.0 | 10.0 | 0.00 | 0.00 | 0.00 | 32 | 1015.9 |
| 20260506143511 | 74 | 249 | 7.0 | 10.0 | 0.00 | 0.00 | 0.00 | 32 | 1015.9 |
| 20260506143010 | 74 | 301 | 7.0 | 10.0 | 0.00 | 0.00 | 0.00 | 32 | 1015.8 |
| 20260506142011 | 75 | 217 | 6.0 | 9.0 | 0.00 | 0.00 | 0.00 | 30 | 1015.9 |
| 20260506141511 | 75 | 226 | 7.0 | 9.0 | 0.00 | 0.00 | 0.00 | 31 | 1015.9 |
| 20260506141010 | 75 | 273 | 6.0 | 9.0 | 0.00 | 0.00 | 0.00 | 32 | 1015.8 |
| 20260506140511 | 75 | 279 | 6.0 | 7.0 | 0.00 | 0.00 | 0.00 | 32 | 1016.0 |
| 20260506135511 | 75 | 235 | 6.0 | 8.0 | 0.00 | 0.00 | 0.00 | 32 | 1015.8 |
| 20260506135011 | 75 | 235 | 7.0 | 9.0 | 0.00 | 0.00 | 0.00 | 32 | 1015.8 |
| 20260506134511 | 75 | 236 | 6.0 | 9.0 | 0.00 | 0.00 | 0.00 | 32 | 1015.9 |
| 20260506133011 | 75 | 245 | 6.0 | 9.0 | 0.00 | 0.00 | 0.00 | 29 | 1015.9 |
| 20260506132011 | 75 | 215 | 6.0 | 9.0 | 0.00 | 0.00 | 0.00 | 30 | 1016.0 |
| 20260506131510 | 76 | 221 | 7.0 | 8.0 | 0.00 | 0.00 | 0.00 | 32 | 1016.0 |
| 20260506131010 | 75 | 243 | 8.0 | 8.0 | 0.00 | 0.00 | 0.00 | 32 | 1015.8 |
| 20260506130511 | 75 | 261 | 6.0 | 9.0 | 0.00 | 0.00 | 0.00 | 32 | 1016.1 |
| 20260506130011 | 76 | 224 | 6.0 | 9.0 | 0.00 | 0.00 | 0.00 | 32 | 1015.9 |
| 20260506125511 | 76 | 210 | 6.0 | 9.0 | 0.00 | 0.00 | 0.00 | 32 | 1016.0 |
| 20260506125010 | 76 | 237 | 6.0 | 8.0 | 0.00 | 0.00 | 0.00 | 30 | 1016.0 |
| 20260506123510 | 76 | 247 | 6.0 | 10.0 | 0.00 | 0.00 | 0.00 | 29 | 1016.1 |
| 20260506123014 | 76 | 249 | 6.0 | 10.0 | 0.00 | 0.00 | 0.00 | 28 | 1016.2 |
| 20260506122511 | 75 | 246 | 7.0 | 10.0 | 0.00 | 0.00 | 0.00 | 30 | 1016.2 |
| 20260506122010 | 75 | 258 | 7.0 | 10.0 | 0.00 | 0.00 | 0.00 | 30 | 1016.1 |
| 20260506121510 | 76 | 271 | 6.0 | 10.0 | 0.00 | 0.00 | 0.00 | 31 | 1016.2 |
| 20260506121011 | 76 | 245 | 6.0 | 8.0 | 0.00 | 0.00 | 0.00 | 32 | 1016.3 |
| 20260506120510 | 76 | 226 | 7.0 | 9.0 | 0.00 | 0.00 | 0.00 | 30 | 1016.2 |
| 20260506120010 | 76 | 263 | 7.0 | 9.0 | 0.00 | 0.00 | 0.00 | 32 | 1016.3 |
| 20260506115511 | 76 | 239 | 7.0 | 10.0 | 0.00 | 0.00 | 0.00 | 28 | 1016.3 |
| 20260506115011 | 76 | 222 | 7.0 | 10.0 | 0.00 | 0.00 | 0.00 | 28 | 1016.3 |
| 20260506114511 | 76 | 259 | 7.0 | 9.0 | 0.00 | 0.00 | 0.00 | 31 | 1016.3 |
| 20260506113510 | 76 | 199 | 7.0 | 11.0 | 0.00 | 0.00 | 0.00 | 32 | 1016.2 |
| 20260506113010 | 76 | 181 | 7.0 | 11.0 | 0.00 | 0.00 | 0.00 | 32 | 1016.4 |
| 20260506112011 | 76 | 192 | 7.0 | 9.0 | 0.00 | 0.00 | 0.00 | 32 | 1016.3 |
| 20260506110510 | 76 | 223 | 6.0 | 8.0 | 0.00 | 0.00 | 0.00 | 32 | 1016.3 |
| 20260506110010 | 76 | 244 | 5.0 | 8.0 | 0.00 | 0.00 | 0.00 | 32 | 1016.4 |
| 20260506105511 | 77 | 244 | 5.0 | 5.0 | 0.00 | 0.00 | 0.00 | 32 | 1016.4 |
| 20260506104510 | 76 | 216 | 4.0 | 6.0 | 0.00 | 0.00 | 0.00 | 32 | 1016.5 |
| 20260506104011 | 76 | 203 | 4.0 | 5.0 | 0.00 | 0.00 | 0.00 | 32 | 1016.5 |
| 20260506103511 | 76 | 220 | 5.0 | 7.0 | 0.00 | 0.00 | 0.00 | 33 | 1016.4 |
| 20260506103010 | 75 | 208 | 6.0 | 7.0 | 0.00 | 0.00 | 0.00 | 34 | 1016.5 |
| 20260506102010 | 76 | 248 | 5.0 | 6.0 | 0.00 | 0.00 | 0.00 | 34 | 1016.6 |
| 20260506101510 | 75 | 251 | 4.0 | 8.0 | 0.00 | 0.00 | 0.00 | 35 | 1016.6 |
| 20260506101011 | 75 | 247 | 5.0 | 8.0 | 0.00 | 0.00 | 0.00 | 34 | 1016.6 |
| 20260506100510 | 75 | 263 | 5.0 | 7.0 | 0.00 | 0.00 | 0.00 | 34 | 1016.5 |
| 20260506100010 | 75 | 236 | 4.0 | 7.0 | 0.00 | 0.00 | 0.00 | 34 | 1016.5 |
| 20260506095510 | 75 | 201 | 5.0 | 7.0 | 0.00 | 0.00 | 0.00 | 34 | 1016.6 |
| 20260506094510 | 75 | 235 | 6.0 | 8.0 | 0.00 | 0.00 | 0.00 | 33 | 1016.6 |
| 20260506094010 | 75 | 252 | 5.0 | 7.0 | 0.00 | 0.00 | 0.00 | 33 | 1016.6 |
| 20260506093010 | 74 | 153 | 5.0 | 8.0 | 0.00 | 0.00 | 0.00 | 34 | 1016.6 |
| 20260506092510 | 74 | 175 | 5.0 | 8.0 | 0.00 | 0.00 | 0.00 | 33 | 1016.7 |
| 20260506092010 | 74 | 194 | 4.0 | 5.0 | 0.00 | 0.00 | 0.00 | 33 | 1016.7 |
| 20260506091510 | 74 | 209 | 4.0 | 5.0 | 0.00 | 0.00 | 0.00 | 34 | 1016.8 |
| 20260506091010 | 74 | 185 | 5.0 | 10.0 | 0.00 | 0.00 | 0.00 | 34 | 1016.7 |
| 20260506090510 | 74 | 173 | 5.0 | 10.0 | 0.00 | 0.00 | 0.00 | 34 | 1016.7 |
| 20260506085510 | 74 | 210 | 3.0 | 4.0 | 0.00 | 0.00 | 0.00 | 34 | 1016.8 |
| 20260506084010 | 73 | 261 | 4.0 | 6.0 | 0.00 | 0.00 | 0.00 | 34 | 1016.6 |
| 20260506083510 | 73 | 254 | 4.0 | 5.0 | 0.00 | 0.00 | 0.00 | 34 | 1016.7 |
| 20260506083010 | 72 | 254 | 4.0 | 5.0 | 0.00 | 0.00 | 0.00 | 37 | 1016.6 |
| 20260506082510 | 72 | 263 | 4.0 | 5.0 | 0.00 | 0.00 | 0.00 | 38 | 1016.7 |
| 20260506082011 | 72 | 247 | 5.0 | 8.0 | 0.00 | 0.00 | 0.00 | 39 | 1016.6 |
| 20260506081510 | 72 | 178 | 5.0 | 8.0 | 0.00 | 0.00 | 0.00 | 40 | 1016.6 |
| 20260506081010 | 72 | 187 | 4.0 | 7.0 | 0.00 | 0.00 | 0.00 | 41 | 1016.7 |
| 20260506073510 | 71 | 224 | 3.0 | 4.0 | 0.00 | 0.00 | 0.00 | 43 | 1016.4 |
| 20260506073010 | 71 | 147 | 3.0 | 5.0 | 0.00 | 0.00 | 0.00 | 42 | 1016.2 |
| 20260506072510 | 70 | 128 | 5.0 | 5.0 | 0.00 | 0.00 | 0.00 | 42 | 1016.2 |
| 20260506072010 | 69 | 130 | 5.0 | 6.0 | 0.00 | 0.00 | 0.00 | 42 | 1016.2 |
| 20260506071510 | 69 | 155 | 3.0 | 6.0 | 0.00 | 0.00 | 0.00 | 41 | 1016.3 |
| 20260506071011 | 70 | 190 | 2.0 | 3.0 | 0.00 | 0.00 | 0.00 | 43 | 1016.3 |
| 20260506070510 | 70 | 190 | 2.0 | 3.0 | 0.00 | 0.00 | 0.00 | 42 | 1016.1 |
| 20260506062510 | 67 | 119 | 3.0 | 5.0 | 0.00 | 0.00 | 0.00 | 45 | 1016.3 |
| 20260506061010 | 66 | 150 | 3.0 | 4.0 | 0.00 | 0.00 | 0.00 | 45 | 1016.2 |
| 20260506060510 | 66 | 151 | 3.0 | 4.0 | 0.00 | 0.00 | 0.00 | 46 | 1016.0 |
| 20260506051009 | 63 | 155 | 3.0 | 4.0 | 0.00 | 0.00 | 0.00 | 55 | 1015.7 |
| 20260506050510 | 63 | 125 | 3.0 | 4.0 | 0.00 | 0.00 | 0.00 | 53 | 1015.8 |
| 20260506045012 | 62 | 97 | 3.0 | 3.0 | 0.00 | 0.00 | 0.00 | 57 | 1015.7 |
| 20260506044510 | 62 | 101 | 2.0 | 3.0 | 0.00 | 0.00 | 0.00 | 57 | 1015.5 |
| 20260506043509 | 61 | 96 | 3.0 | 4.0 | 0.00 | 0.00 | 0.00 | 58 | 1015.6 |
| 20260506043010 | 61 | 90 | 3.0 | 4.0 | 0.00 | 0.00 | 0.00 | 58 | 1015.5 |
| 20260506042510 | 60 | 105 | 3.0 | 4.0 | 0.00 | 0.00 | 0.00 | 58 | 1015.6 |
| 20260506042010 | 60 | 115 | 3.0 | 4.0 | 0.00 | 0.00 | 0.00 | 58 | 1015.6 |
| 20260506041011 | 60 | 91 | 3.0 | 4.0 | 0.00 | 0.00 | 0.00 | 59 | 1015.4 |
| 20260506040509 | 59 | 99 | 2.0 | 3.0 | 0.00 | 0.00 | 0.00 | 60 | 1015.4 |
| 20260506040010 | 59 | 104 | 2.0 | 3.0 | 0.00 | 0.00 | 0.00 | 60 | 1015.5 |
| 20260506035510 | 59 | 118 | 2.0 | 2.0 | 0.00 | 0.00 | 0.00 | 60 | 1015.4 |
| 20260506035010 | 59 | 131 | 2.0 | 3.0 | 0.00 | 0.00 | 0.00 | 60 | 1015.3 |
| 20260506034509 | 59 | 128 | 2.0 | 3.0 | 0.00 | 0.00 | 0.00 | 60 | 1015.2 |
| 20260506033509 | 60 | 103 | 2.0 | 3.0 | 0.00 | 0.00 | 0.00 | 60 | 1015.1 |
| 20260506033010 | 59 | 116 | 2.0 | 2.0 | 0.00 | 0.00 | 0.00 | 60 | 1015.1 |
| 20260506032510 | 60 | 135 | 1.0 | 2.0 | 0.00 | 0.00 | 0.00 | 60 | 1015.1 |
| 20260506032010 | 60 | 113 | 1.0 | 2.0 | 0.00 | 0.00 | 0.00 | 60 | 1015.1 |
| 20260506031509 | 59 | 90 | 2.0 | 2.0 | 0.00 | 0.00 | 0.00 | 62 | 1015.0 |
| 20260506031010 | 59 | 87 | 2.0 | 3.0 | 0.00 | 0.00 | 0.00 | 62 | 1015.0 |
| 20260506030510 | 59 | 94 | 3.0 | 4.0 | 0.00 | 0.00 | 0.00 | 62 | 1015.0 |
| 20260506030015 | 59 | 93 | 3.0 | 4.0 | 0.00 | 0.00 | 0.00 | 62 | 1015.0 |
| 20260506025510 | 59 | 91 | 3.0 | 4.0 | 0.00 | 0.00 | 0.00 | 63 | 1014.9 |
| 20260506025012 | 59 | 99 | 3.0 | 3.0 | 0.00 | 0.00 | 0.00 | 63 | 1014.9 |
| 20260506024510 | 59 | 94 | 3.0 | 3.0 | 0.00 | 0.00 | 0.00 | 63 | 1015.0 |
| 20260506024009 | 59 | 96 | 3.0 | 3.0 | 0.00 | 0.00 | 0.00 | 63 | 1015.0 |
| 20260506023509 | 59 | 99 | 3.0 | 3.0 | 0.00 | 0.00 | 0.00 | 63 | 1015.0 |
| 20260506023010 | 59 | 104 | 2.0 | 4.0 | 0.00 | 0.00 | 0.00 | 63 | 1015.0 |
| 20260506022509 | 59 | 120 | 2.0 | 4.0 | 0.00 | 0.00 | 0.00 | 62 | 1015.2 |
| 20260506022010 | 60 | 111 | 2.0 | 4.0 | 0.00 | 0.00 | 0.00 | 62 | 1015.0 |
| 20260506021510 | 60 | 96 | 2.0 | 3.0 | 0.00 | 0.00 | 0.00 | 61 | 1015.1 |
| 20260506020510 | 60 | 91 | 3.0 | 3.0 | 0.00 | 0.00 | 0.00 | 61 | 1015.1 |
| 20260506020010 | 61 | 94 | 3.0 | 3.0 | 0.00 | 0.00 | 0.00 | 60 | 1015.2 |
| 20260506014510 | 61 | 107 | 2.0 | 3.0 | 0.00 | 0.00 | 0.00 | 59 | 1015.3 |
| 20260506014009 | 61 | 109 | 2.0 | 2.0 | 0.00 | 0.00 | 0.00 | 60 | 1015.2 |
| 20260506013511 | 61 | 105 | 2.0 | 2.0 | 0.00 | 0.00 | 0.00 | 60 | 1015.2 |
| 20260506013011 | 61 | 106 | 2.0 | 2.0 | 0.00 | 0.00 | 0.00 | 61 | 1015.4 |
| 20260506012509 | 60 | 93 | 2.0 | 2.0 | 0.00 | 0.00 | 0.00 | 62 | 1015.2 |
| 20260506011509 | 60 | 116 | 2.0 | 3.0 | 0.00 | 0.00 | 0.00 | 62 | 1015.3 |
| 20260506011009 | 60 | 108 | 3.0 | 4.0 | 0.00 | 0.00 | 0.00 | 63 | 1015.3 |
| 20260506010510 | 60 | 90 | 3.0 | 4.0 | 0.00 | 0.00 | 0.00 | 63 | 1015.4 |
| 20260506010010 | 60 | 94 | 4.0 | 4.0 | 0.00 | 0.00 | 0.00 | 63 | 1015.3 |
| 20260506005509 | 60 | 90 | 3.0 | 4.0 | 0.00 | 0.00 | 0.00 | 63 | 1015.2 |
| 20260506005010 | 59 | 87 | 2.0 | 3.0 | 0.00 | 0.00 | 0.00 | 63 | 1015.4 |
| 20260506004509 | 60 | 111 | 2.0 | 3.0 | 0.00 | 0.00 | 0.00 | 62 | 1015.5 |
| 20260506004009 | 60 | 122 | 2.0 | 3.0 | 0.00 | 0.00 | 0.00 | 62 | 1015.3 |
| 20260506003513 | 60 | 110 | 2.0 | 3.0 | 0.00 | 0.00 | 0.00 | 62 | 1015.3 |
| 20260506003009 | 60 | 99 | 3.0 | 3.0 | 0.00 | 0.00 | 0.00 | 62 | 1015.5 |
| 20260506002509 | 60 | 88 | 3.0 | 3.0 | 0.00 | 0.00 | 0.00 | 62 | 1015.5 |
| 20260506001019 | 60 | 113 | 2.0 | 4.0 | 0.00 | 0.00 | 0.00 | 62 | 1015.5 |
| 20260506000511 | 60 | 108 | 2.0 | 4.0 | 0.00 | 0.00 | 0.00 | 62 | 1015.4 |
| 20260505235512 | 60 | 133 | 2.0 | 3.0 | 0.00 | 0.00 | 0.00 | 62 | 1015.5 |
| 20260505235010 | 61 | 135 | 2.0 | 3.0 | 0.00 | 0.00 | 0.00 | 61 | 1015.4 |
| 20260505234509 | 61 | 136 | 2.0 | 3.0 | 0.00 | 0.00 | 0.00 | 61 | 1015.5 |
| 20260505233510 | 61 | 102 | 1.0 | 2.0 | 0.00 | 0.00 | 0.00 | 59 | 1015.5 |
| 20260505233013 | 61 | 114 | 2.0 | 2.0 | 0.00 | 0.00 | 0.00 | 58 | 1015.7 |
| 20260505232510 | 61 | 118 | 1.0 | 2.0 | 0.00 | 0.00 | 0.00 | 58 | 1015.7 |